TimeMST,TemperatureF,Dew PointF,Humidity,Sea Level PressureIn,VisibilityMPH,Wind Direction,Wind SpeedMPH,Gust SpeedMPH,PrecipitationIn,Events,Conditions,WindDirDegrees,DateUTC
12:15 AM,6.8,6.8,100,30.40,10.0,Calm,Calm,-,N/A,,Clear,0,2013-02-02 07:15:00
12:35 AM,1.4,-9.4,61,30.41,10.0,East,4.6,-,N/A,,Clear,80,2013-02-02 07:35:00
12:55 AM,1.4,1.4,100,30.41,10.0,Calm,Calm,-,N/A,,Clear,0,2013-02-02 07:55:00
1:15 AM,1.4,-7.6,66,30.42,10.0,Calm,Calm,-,N/A,,Clear,0,2013-02-02 08:15:00
1:35 AM,1.4,-0.4,92,30.42,10.0,Calm,Calm,-,N/A,,Clear,0,2013-02-02 08:35:00
2:15 AM,-0.4,-0.4,100,30.44,10.0,NE,3.5,-,N/A,,Clear,50,2013-02-02 09:15:00
2:35 AM,-0.4,-9.4,66,30.45,10.0,NE,5.8,-,N/A,,Clear,50,2013-02-02 09:35:00
2:55 AM,-0.4,-0.4,100,30.45,10.0,Calm,Calm,-,N/A,,Clear,0,2013-02-02 09:55:00
3:15 AM,-0.4,-11.2,60,30.46,10.0,Calm,Calm,-,N/A,,Clear,0,2013-02-02 10:15:00
3:55 AM,-5.8,-16.6,60,30.47,10.0,ENE,3.5,-,N/A,,Clear,60,2013-02-02 10:55:00
4:15 AM,-4.0,-5.8,92,30.47,10.0,NE,4.6,-,N/A,,Clear,50,2013-02-02 11:15:00
4:35 AM,-2.2,-4.0,92,30.47,10.0,ENE,5.8,-,N/A,,Clear,60,2013-02-02 11:35:00
4:55 AM,-4.0,-16.6,55,30.47,10.0,Calm,Calm,-,N/A,,Clear,0,2013-02-02 11:55:00
5:15 AM,-2.2,-2.2,100,30.47,10.0,ENE,4.6,-,N/A,,Clear,60,2013-02-02 12:15:00
5:35 AM,-5.8,-20.2,50,30.48,9.0,Calm,Calm,-,N/A,,Clear,0,2013-02-02 12:35:00
5:55 AM,-5.8,-5.8,100,30.49,10.0,Calm,Calm,-,N/A,,Clear,0,2013-02-02 12:55:00
6:15 AM,-5.8,-13.0,71,30.49,10.0,Calm,Calm,-,N/A,,Clear,0,2013-02-02 13:15:00
6:35 AM,-5.8,-13.0,71,30.50,10.0,Calm,Calm,-,N/A,,Clear,0,2013-02-02 13:35:00
6:55 AM,-5.8,-5.8,100,30.51,10.0,Calm,Calm,-,N/A,,Clear,0,2013-02-02 13:55:00
7:15 AM,-9.4,-23.8,49,30.52,10.0,Calm,Calm,-,N/A,,Clear,0,2013-02-02 14:15:00
7:35 AM,-9.4,-14.8,77,30.53,10.0,Calm,Calm,-,N/A,,Clear,0,2013-02-02 14:35:00
7:55 AM,-7.6,-9.4,92,30.53,10.0,Calm,Calm,-,N/A,,Clear,0,2013-02-02 14:55:00
8:15 AM,-5.8,-5.8,100,30.54,10.0,Calm,Calm,-,N/A,,Clear,0,2013-02-02 15:15:00
8:35 AM,-5.8,-18.4,55,30.54,10.0,ENE,3.5,-,N/A,,Clear,60,2013-02-02 15:35:00
8:55 AM,-5.8,-11.2,77,30.54,10.0,Calm,Calm,-,N/A,,Clear,0,2013-02-02 15:55:00
9:15 AM,-4.0,-9.4,78,30.54,10.0,Calm,Calm,-,N/A,,Clear,0,2013-02-02 16:15:00
9:35 AM,-2.2,-9.4,71,30.54,10.0,Calm,Calm,-,N/A,,Clear,0,2013-02-02 16:35:00
9:55 AM,-0.4,-9.4,66,30.55,10.0,Calm,Calm,-,N/A,,Clear,0,2013-02-02 16:55:00
10:15 AM,1.4,-0.4,92,30.55,10.0,Calm,Calm,-,N/A,,Clear,0,2013-02-02 17:15:00
10:35 AM,3.2,3.2,100,30.55,10.0,Calm,Calm,-,N/A,,Clear,0,2013-02-02 17:35:00
10:55 AM,8.6,-2.2,62,30.55,10.0,Calm,Calm,-,N/A,,Clear,0,2013-02-02 17:55:00
11:15 AM,10.4,1.4,67,30.54,10.0,East,3.5,-,N/A,,Clear,90,2013-02-02 18:15:00
11:35 AM,10.4,5.0,79,30.53,10.0,Calm,Calm,-,N/A,,Clear,0,2013-02-02 18:35:00
11:55 AM,12.2,3.2,67,30.52,10.0,Calm,Calm,-,N/A,,Clear,0,2013-02-02 18:55:00
12:15 PM,15.8,8.6,73,30.51,10.0,Calm,Calm,-,N/A,,Clear,0,2013-02-02 19:15:00
12:35 PM,15.8,6.8,68,30.50,10.0,Calm,Calm,-,N/A,,Clear,0,2013-02-02 19:35:00
12:55 PM,15.8,6.8,68,30.49,10.0,Calm,Calm,-,N/A,,Clear,0,2013-02-02 19:55:00
1:15 PM,17.6,8.6,68,30.48,10.0,Calm,Calm,-,N/A,,Clear,0,2013-02-02 20:15:00
1:35 PM,17.6,10.4,73,30.47,10.0,East,4.6,-,N/A,,Clear,80,2013-02-02 20:35:00
1:55 PM,19.4,10.4,68,30.46,10.0,East,3.5,-,N/A,,Clear,90,2013-02-02 20:55:00
2:15 PM,21.2,12.2,68,30.46,10.0,East,4.6,-,N/A,,Clear,80,2013-02-02 21:15:00
2:35 PM,23.0,12.2,63,30.46,10.0,East,4.6,-,N/A,,Clear,80,2013-02-02 21:35:00
2:55 PM,23.0,12.2,63,30.45,10.0,East,4.6,-,N/A,,Clear,80,2013-02-02 21:55:00
3:15 PM,23.0,12.2,63,30.45,10.0,East,4.6,-,N/A,,Clear,80,2013-02-02 22:15:00
3:35 PM,24.8,10.4,54,30.45,10.0,ENE,4.6,-,N/A,,Clear,60,2013-02-02 22:35:00
3:55 PM,23.0,10.4,59,30.45,10.0,Calm,Calm,-,N/A,,Clear,0,2013-02-02 22:55:00
4:15 PM,23.0,10.4,59,30.45,10.0,North,4.6,-,N/A,,Clear,350,2013-02-02 23:15:00
4:35 PM,23.0,10.4,59,30.45,10.0,North,5.8,-,N/A,,Clear,360,2013-02-02 23:35:00
4:55 PM,21.2,10.4,63,30.45,10.0,North,3.5,-,N/A,,Clear,10,2013-02-02 23:55:00
5:15 PM,21.2,8.6,58,30.44,10.0,NNE,3.5,-,N/A,,Clear,20,2013-02-03 00:15:00
5:35 PM,17.6,6.8,63,30.44,10.0,Calm,Calm,-,N/A,,Clear,0,2013-02-03 00:35:00
6:15 PM,15.8,5.0,62,30.45,10.0,Calm,Calm,-,N/A,,Clear,0,2013-02-03 01:15:00
6:35 PM,14.0,3.2,62,30.45,10.0,Calm,Calm,-,N/A,,Clear,0,2013-02-03 01:35:00
6:55 PM,15.8,6.8,68,30.45,10.0,North,3.5,-,N/A,,Clear,360,2013-02-03 01:55:00
7:15 PM,14.0,8.6,79,30.45,10.0,Calm,Calm,-,N/A,,Clear,0,2013-02-03 02:15:00
7:35 PM,12.2,6.8,79,30.46,10.0,Calm,Calm,-,N/A,,Clear,0,2013-02-03 02:35:00
7:55 PM,12.2,3.2,67,30.46,10.0,North,4.6,-,N/A,,Clear,360,2013-02-03 02:55:00
8:15 PM,10.4,5.0,79,30.46,10.0,Calm,Calm,-,N/A,,Clear,0,2013-02-03 03:15:00
8:35 PM,10.4,3.2,73,30.47,10.0,Calm,Calm,-,N/A,,Clear,0,2013-02-03 03:35:00
9:15 PM,6.8,-0.4,72,30.47,10.0,ENE,3.5,-,N/A,,Clear,70,2013-02-03 04:15:00
9:35 PM,8.6,6.8,92,30.47,10.0,NNE,3.5,-,N/A,,Clear,30,2013-02-03 04:35:00
9:55 PM,8.6,-0.4,67,30.47,10.0,NNE,3.5,-,N/A,,Clear,30,2013-02-03 04:55:00
10:15 PM,6.8,1.4,79,30.47,10.0,NE,6.9,-,N/A,,Clear,40,2013-02-03 05:15:00
10:35 PM,5.0,1.4,85,30.46,10.0,ENE,5.8,-,N/A,,Clear,60,2013-02-03 05:35:00
10:55 PM,6.8,-0.4,72,30.46,10.0,Calm,Calm,-,N/A,,Clear,0,2013-02-03 05:55:00
11:15 PM,6.8,1.4,79,30.46,10.0,Calm,Calm,-,N/A,,Clear,0,2013-02-03 06:15:00
11:35 PM,3.2,-2.2,78,30.46,10.0,ENE,4.6,-,N/A,,Clear,60,2013-02-03 06:35:00
11:55 PM,3.2,-2.2,78,30.46,10.0,ENE,3.5,-,N/A,,Clear,70,2013-02-03 06:55:00